Siskiyou Pass Past Weather

Last 30 Days

 
High: 57ºf @1:54 PM    Low: 20ºf @6:54 AM     Approx. Precipitation / Rain Total: in.
Time (PST)Temp. (ºf)Humidity (%)Dew Point (ºf)Barometer (inHG)Wind Speed (mph)Wind DirectionWind Gust (mph)1hr. Precip / Rain Total (in.)Snow Depth
11:54 PM296016.88-3.48ne6.08--
10:54 PM306017.82-2.61ne5.21--
9:54 PM325818.92-2.61ne5.21--
8:54 PM335719.45-1.74ene5.21--
7:54 PM355319.62-2.61ne4.34--
6:54 PM385221.96-1.74ne4.34--
5:54 PM473520.78-1.74se3.48--
4:54 PM522618.19-0.87ssw6.08--
3:54 PM552317.9-1.74ssw7.82--
2:54 PM562217.71-1.74ssw8.69--
1:54 PM572016.34-2.61ssw6.95--
12:54 PM562116.63-1.74ssw7.82--
11:54 AM532316.21-1.74sse6.08--
10:54 AM482614.77-0.87sse3.48--
9:54 AM443014.58-0.87nw3.48--
8:54 AM355219.17-0.87ese3.48--
7:54 AM237115.02-0.87nne4.34--
6:54 AM207312.76-2.61ne4.34--
5:54 AM217313.73-2.61ne5.21--
4:54 AM227114.06-2.61ne4.34--
3:54 AM227114.06-2.61nne4.34--
2:54 AM236914.37-2.61nne3.48--
1:54 AM237115.02-1.74nne3.48--
12:54 AM246714.66-1.74nne4.34--
High: 51ºf @1:54 PM    Low: 21ºf @6:54 AM     Approx. Precipitation / Rain Total: in.
Time (PST)Temp. (ºf)Humidity (%)Dew Point (ºf)Barometer (inHG)Wind Speed (mph)Wind DirectionWind Gust (mph)1hr. Precip / Rain Total (in.)Snow Depth
10:54 PM266515.87-1.74nne3.48--
9:54 PM275914.61-2.61nne4.34--
8:54 PM285915.55-1.74nne4.34--
7:54 PM305716.64-1.74nne5.21--
6:54 PM364617.25-1.74nne4.34--
5:54 PM413817.36-1.74nw6.95--
4:54 PM463117.08-1.74nw8.69--
3:54 PM482614.77-3.48nw9.56--
2:54 PM492615.63-3.48nw8.69--
1:54 PM512415.5-2.61wnw7.82--
12:54 PM492514.73-2.61wnw6.95--
11:54 AM472513.03-2.61nw7.82--
10:54 AM442712.19-2.61wnw8.69--
9:54 AM413213.43-1.74wnw5.21--
8:54 AM364617.25---2.61--
7:54 AM236914.37-1.74ene4.34--
6:54 AM217414.04-2.61ne4.34--
5:54 AM227013.74-1.74ne2.61--
4:54 AM247015.66-0.87e4.34--
3:54 AM266415.52-0.87e3.48--
2:54 AM237516.28-2.61ne4.34--
1:54 AM237616.58-1.74nne4.34--
12:54 AM237716.88-0.87n2.61--
High: 47ºf @1:54 PM    Low: 24ºf @11:54 PM     Approx. Precipitation / Rain Total: in.
Time (PST)Temp. (ºf)Humidity (%)Dew Point (ºf)Barometer (inHG)Wind Speed (mph)Wind DirectionWind Gust (mph)1hr. Precip / Rain Total (in.)Snow Depth
11:54 PM247416.94-1.74nne3.48--
10:54 PM267017.58-1.74nnw4.34--
9:54 PM267117.91-0.87ne2.61--
8:54 PM286818.83-1.74n4.34--
7:54 PM306620.04-2.61ne3.48--
6:54 PM365220.1-0.87ene5.21--
5:54 PM404520.39-0.87nnw6.95--
3:54 PM453820.94-4.34n12.17--
2:54 PM463318.53-3.48nw10.43--
1:54 PM473420.1-5.21n13.9--
12:54 PM463721.2-5.21nne13.03--
11:54 AM444624.57-4.34nnw14.77--
10:54 AM405726.01-5.21nw17.38--
9:54 AM396227.1-4.34wnw13.03--
8:54 AM386226.15-2.61nw13.03--
7:54 AM317824.96-3.48nw13.03--
6:54 AM298424.78-3.48wnw9.56--
5:54 AM308225.18-2.61wnw8.69--
4:54 AM318125.87-1.74nw6.08--
3:54 AM327825.93-2.61nnw10.43--
2:54 AM347326.27-2.61nw10.43--
1:54 AM347025.26-2.61nw8.69--
12:54 AM366324.64-2.61nw6.95--
High: 53ºf @2:54 PM    Low: 35ºf @11:54 PM     Approx. Precipitation / Rain Total: in.
Time (PST)Temp. (ºf)Humidity (%)Dew Point (ºf)Barometer (inHG)Wind Speed (mph)Wind DirectionWind Gust (mph)1hr. Precip / Rain Total (in.)Snow Depth
11:54 PM356725.17-1.74n6.95--
10:54 PM376325.59-3.48nw11.3--
9:54 PM385924.96-3.48nw10.43--
8:54 PM386326.54-2.61nw9.56--
7:54 PM406729.94-4.34nw11.3--
6:54 PM426832.22-2.61nw13.9--
5:54 PM456734.71-2.61nw7.82--
4:54 PM495935.3-2.61nnw11.3--
3:54 PM524933.44-3.48nnw13.03--
2:54 PM534934.36-4.34n11.3--
1:54 PM535235.85-3.48nnw9.56--
12:54 PM525536.34-1.74sw5.21--
10:54 AM456634.33-0.87wnw3.48--
9:54 AM447135.21---2.61--
8:54 AM417935---0.87--
7:54 AM389035.33---1.74--
6:54 AM388935.05-0.87n2.61--
4:54 AM398635.17-0.87e2.61--
3:54 AM398233.98---1.74--
2:54 AM397933.05---2.61--
1:54 AM407432.39---4.34--
12:54 AM417734.35-0.87nw4.34--
High: 54ºf @1:54 PM    Low: 35ºf @2:54 AM     Approx. Precipitation / Rain Total: in.
Time (PST)Temp. (ºf)Humidity (%)Dew Point (ºf)Barometer (inHG)Wind Speed (mph)Wind DirectionWind Gust (mph)1hr. Precip / Rain Total (in.)Snow Depth
11:54 PM437134.25-0.87e3.48--
10:54 PM446031.02-0.87sse6.08--
9:54 PM436030.08---2.61--
8:54 PM446231.83---1.74--
7:54 PM455831.12---2.61--
6:54 PM465430.3---5.21--
5:54 PM475230.3-0.87nw6.95--
4:54 PM504730.57-3.48nw9.56--
3:54 PM504831.09-1.74wnw6.95--
2:54 PM514429.86-0.87ssw5.21--
1:54 PM544030.23-0.87w6.08--
12:54 PM524430.77-1.74wnw6.08--
11:54 AM485231.22-0.87sw5.21--
10:54 AM455529.82-0.87wnw6.08--
9:54 AM425828.31-2.61nw11.3--
8:54 AM415224.74-2.61nw7.82--
7:54 AM386226.15-0.87ene3.48--
6:54 AM366625.76-1.74nne9.56--
5:54 AM366525.39-4.34wnw10.43--
4:54 AM376225.21-1.74nnw10.43--
3:54 AM376425.97-0.87nnw6.08--
2:54 AM356825.52-0.87sse6.08--
1:54 AM376425.97-1.74nnw6.08--
High: 53ºf @1:54 PM    Low: 29ºf @4:54 AM     Approx. Precipitation / Rain Total: in.
Time (PST)Temp. (ºf)Humidity (%)Dew Point (ºf)Barometer (inHG)Wind Speed (mph)Wind DirectionWind Gust (mph)1hr. Precip / Rain Total (in.)Snow Depth
11:54 PM386125.76-1.74n9.56--
10:54 PM317524.02-1.74ne3.48--
9:54 PM356825.52-1.74e4.34--
8:54 PM346924.92-1.74ne3.48--
7:54 PM376325.59-1.74ene4.34--
6:54 PM415726.95-0.87ne6.08--
5:54 PM445127.05-1.74n6.95--
4:54 PM475029.34-1.74nw10.43--
3:54 PM513826.3-3.48nw11.3--
2:54 PM514228.72-4.34nw13.03--
1:54 PM534129.94-3.48nw10.43--
12:54 PM524229.63-2.61wnw8.69--
11:54 AM514329.3-2.61wnw7.82--
10:54 AM465530.75-2.61wnw8.69--
9:54 AM436230.88-2.61nne7.82--
8:54 AM377931.1-1.74nnw5.21--
7:54 AM319128.69-1.74nne4.34--
6:54 AM328828.86-0.87ne9.56--
5:54 AM338629.28-0.87sw4.34--
4:54 AM298725.63-1.74ne4.34--
3:54 AM298725.63-1.74ne4.34--
2:54 AM308626.33-0.87n4.34--
1:54 AM318627.31-0.87ne2.61--
12:54 AM338428.7-0.87ne1.74--
High: 57ºf @1:54 PM    Low: 22ºf @6:54 AM     Approx. Precipitation / Rain Total: in.
Time (PST)Temp. (ºf)Humidity (%)Dew Point (ºf)Barometer (inHG)Wind Speed (mph)Wind DirectionWind Gust (mph)1hr. Precip / Rain Total (in.)Snow Depth
6:54 PM474727.83-4.34ese10.43--
5:54 PM494629.13-5.21ese11.3--
4:54 PM523726.54-3.48se11.3--
3:54 PM543224.82-5.21se14.77--
2:54 PM562924.2-6.08se15.64--
1:54 PM572723.36-7.82se17.38--
12:54 PM562924.2-7.82se18.25--
11:54 AM543124.06-6.95se16.51--
10:54 AM523021.54-4.34sse13.03--
9:54 AM463721.2-0.87sw3.48--
8:54 AM375522.35-0.87e2.61--
7:54 AM247216.31-2.61ne4.34--
6:54 AM227816.21-0.87nne3.48--
5:54 AM247115.99-2.61ne4.34--
4:54 AM247517.25-0.87n3.48--
3:54 AM257116.95-2.61ne4.34--
2:54 AM266917.25-2.61n4.34--
1:54 AM267218.23-1.74n3.48--
12:54 AM277319.52-1.74nne4.34--
High: 57ºf @3:54 PM    Low: 28ºf @11:54 PM     Approx. Precipitation / Rain Total: in.
Time (PST)Temp. (ºf)Humidity (%)Dew Point (ºf)Barometer (inHG)Wind Speed (mph)Wind DirectionWind Gust (mph)1hr. Precip / Rain Total (in.)Snow Depth
11:54 PM287119.83-2.61nne4.34--
10:54 PM297522.09-0.87ne4.34--
9:54 PM297421.77-0.87nnw4.34--
8:54 PM327224.01-0.87nne5.21--
7:54 PM356725.17-1.74nne4.34--
6:54 PM405726.01-1.74nne3.48--
4:54 PM533022.41-2.61n8.69--
3:54 PM572521.54-2.61nnw7.82--
2:54 PM552721.64-2.61wnw7.82--
1:54 PM563025.01-3.48n10.43--
12:54 PM552721.64-3.48nw8.69--
11:54 AM543325.55-2.61nnw11.3--
10:54 AM503926.03-1.74wnw13.9--
9:54 AM484628.22-3.48ene9.56--
8:54 AM454927-0.87se4.34--
7:54 AM376526.35-2.61ne6.08--
6:54 AM366726.12-1.74e11.3--
5:54 AM386226.15-4.34nw10.43--
4:54 AM366926.83-2.61nne6.95--
3:54 AM386326.54-2.61e9.56--
2:54 AM396126.71-2.61nne7.82--
1:54 AM395925.9-1.74n6.95--
12:54 AM425225.67-2.61wnw11.3--
High: 58ºf @1:54 PM    Low: 28ºf @6:54 AM     Approx. Precipitation / Rain Total: in.
Time (PST)Temp. (ºf)Humidity (%)Dew Point (ºf)Barometer (inHG)Wind Speed (mph)Wind DirectionWind Gust (mph)1hr. Precip / Rain Total (in.)Snow Depth
11:54 PM435025.65-5.21nw11.3--
10:54 PM425326.12-3.48nw10.43--
9:54 PM444926.08-3.48nw14.77--
8:54 PM454625.48-5.21wnw15.64--
7:54 PM464324.77-4.34nw13.9--
6:54 PM503523.44-5.21nnw13.9--
5:54 PM513322.92-4.34nnw20.86--
4:54 PM533324.68-4.34nnw14.77--
3:54 PM552923.34-6.08nnw16.51--
2:54 PM562722.5-5.21nnw18.25--
1:54 PM582421.42-4.34nnw12.17--
12:54 PM572723.36-3.48n11.3--
11:54 AM552822.5-1.74wnw9.56--
10:54 AM523323.8-4.34nne11.3--
9:54 AM473923.34-2.61nw8.69--
8:54 AM444423.5-0.87nw5.21--
7:54 AM316821.7-0.87nnw2.61--
6:54 AM287420.8-0.87nne5.21--
5:54 AM297421.77-1.74ne5.21--
4:54 AM346021.59-2.61nw6.95--
3:54 AM287721.74-2.61ne6.08--
2:54 AM287822.04-0.87n4.34--
1:54 AM297522.09-2.61ne5.21--
12:54 AM307021.42-2.61nne5.21--
High: 53ºf @2:54 PM    Low: 27ºf @6:54 AM     Approx. Precipitation / Rain Total: in.
Time (PST)Temp. (ºf)Humidity (%)Dew Point (ºf)Barometer (inHG)Wind Speed (mph)Wind DirectionWind Gust (mph)1hr. Precip / Rain Total (in.)Snow Depth
11:54 PM307021.42-1.74ne4.34--
10:54 PM317022.38-0.87n4.34--
9:54 PM346021.59-2.61nne5.21--
8:54 PM346121.98-1.74ne6.08--
7:54 PM375522.35-2.61ne5.21--
6:54 PM405223.81-1.74ne4.34--
5:54 PM473923.34-1.74n11.3--
4:54 PM513322.92-3.48n12.17--
3:54 PM533022.41-4.34n13.03--
2:54 PM532619.05-5.21nne14.77--
1:54 PM532719.93-6.08n14.77--
12:54 PM532820.78-4.34n12.17--
11:54 AM512819.06-3.48n11.3--
10:54 AM483622.33-2.61nw9.56--
9:54 AM444423.5-2.61nw8.69--
8:54 AM395222.88-1.74nw5.21--
7:54 AM297221.12-0.87sse3.48--
6:54 AM277520.15-0.87wnw2.61--
5:54 AM306820.74-0.87nnw4.34--
4:54 AM326220.48-0.87wnw8.69--
3:54 AM335719.45---11.3--
2:54 AM345419.12-2.61n8.69--
1:54 AM355319.62-2.61ne9.56--
12:54 AM335719.45-2.61nne7.82--
High: 45ºf @1:54 PM    Low: 27ºf @6:54 AM     Approx. Precipitation / Rain Total: in.
Time (PST)Temp. (ºf)Humidity (%)Dew Point (ºf)Barometer (inHG)Wind Speed (mph)Wind DirectionWind Gust (mph)1hr. Precip / Rain Total (in.)Snow Depth
11:54 PM374919.64-4.34n9.56--
10:54 PM374718.67-5.21nne12.17--
9:54 PM374517.66-3.48ene7.82--
8:54 PM374517.66-3.48nne7.82--
7:54 PM374618.17-3.48nne8.69--
6:54 PM374718.67-2.61ne6.08--
5:54 PM394418.96-1.74nne9.56--
4:54 PM424019.45-3.48nnw11.3--
3:54 PM443920.65-3.48nnw13.03--
2:54 PM443920.65-5.21nw13.9--
1:54 PM453921.55-4.34nw13.03--
12:54 PM424220.59-5.21nw14.77--
11:54 AM404620.91-5.21nw17.38--
10:54 AM394921.48-5.21nnw13.03--
9:54 AM375120.57-3.48nw12.17--
7:54 AM287220.16-2.61nne8.69--
6:54 AM277419.84-3.48n9.56--
5:54 AM277720.77-3.48nne9.56--
4:54 AM287621.43-3.48n12.17--
3:54 AM297421.77-4.34n13.03--
2:54 AM307322.41-2.61nnw12.17--
1:54 AM307623.37-4.34nnw14.77--
12:54 AM298123.91-6.08nnw14.77--
High: 46ºf @12:54 PM    Low: 29ºf @11:54 PM     Approx. Precipitation / Rain Total: in.
Time (PST)Temp. (ºf)Humidity (%)Dew Point (ºf)Barometer (inHG)Wind Speed (mph)Wind DirectionWind Gust (mph)1hr. Precip / Rain Total (in.)Snow Depth
11:54 PM298023.62-4.34nnw20.86--
10:54 PM307422.74-4.34nnw18.25--
9:54 PM307623.37-6.95nw18.25--
8:54 PM317223.05-4.34nnw18.25--
7:54 PM336723.26-6.08n19.12--
6:54 PM355721.33-5.21n17.38--
5:54 PM374819.16-5.21nnw15.64--
4:54 PM394117.32-4.34nnw17.38--
3:54 PM424220.59-6.08nnw22.59--
2:54 PM444322.96-6.08nnw17.38--
1:54 PM454223.3-6.95nnw19.12--
12:54 PM464123.63-6.08n22.59--
11:54 AM444322.96-6.08nnw22.59--
10:54 AM425627.46-6.08nw16.51--
9:54 AM426229.94-6.08nw15.64--
8:54 AM416630.53-5.21nnw16.51--
7:54 AM396728.99-5.21nnw14.77--
6:54 AM396427.87-4.34nw12.17--
4:54 AM367328.2-2.61wnw13.9--
3:54 AM386627.67-5.21nw13.03--
2:54 AM396026.31-6.08nw14.77--
1:54 AM347225.94-0.87e4.34--
12:54 AM405625.59-0.87nw9.56--
High: 63ºf @1:54 PM    Low: 30ºf @7:54 AM     Approx. Precipitation / Rain Total: in.
Time (PST)Temp. (ºf)Humidity (%)Dew Point (ºf)Barometer (inHG)Wind Speed (mph)Wind DirectionWind Gust (mph)1hr. Precip / Rain Total (in.)Snow Depth
11:54 PM318125.87-0.87nne4.34--
10:54 PM327825.93-2.61ne4.34--
9:54 PM337425.63-0.87ene4.34--
8:54 PM367027.18-1.74nne4.34--
7:54 PM396528.25-1.74n5.21--
6:54 PM465530.75-1.74ese6.08--
5:54 PM514027.54-0.87nnw6.95--
4:54 PM572824.23-0.87w7.82--
3:54 PM612928.52-2.61nw11.3--
2:54 PM622929.38-3.48wnw11.3--
1:54 PM633031.08-2.61wnw8.69--
12:54 PM593632.09-4.34nw10.43--
11:54 AM574032.92-3.48wnw13.03--
10:54 AM525033.94-4.34nw11.3--
9:54 AM475833-3.48nw9.56--
8:54 AM436532.05-2.61n6.95--
7:54 AM308325.48-1.74ene5.21--
6:54 AM308024.59-2.61ene6.08--
5:54 AM387330.13-1.74nne8.69--
4:54 AM397331.09-2.61nnw11.3--
3:54 AM397632.09-2.61nnw8.69--
2:54 AM367930.13-2.61n6.95--
1:54 AM328026.54-3.48ne5.21--
12:54 AM337826.9-3.48ne6.95--
High: 60ºf @2:54 PM    Low: 34ºf @11:54 PM     Approx. Precipitation / Rain Total: in.
Time (PST)Temp. (ºf)Humidity (%)Dew Point (ºf)Barometer (inHG)Wind Speed (mph)Wind DirectionWind Gust (mph)1hr. Precip / Rain Total (in.)Snow Depth
11:54 PM347627.24-3.48ne6.08--
10:54 PM367127.52-2.61ne6.95--
9:54 PM386627.67-3.48nne6.08--
8:54 PM396227.1-2.61ne7.82--
7:54 PM436833.17-0.87nnw4.34--
6:54 PM465932.48-0.87nw7.82--
5:54 PM495533.54-2.61wnw9.56--
3:54 PM592725.07-5.21nnw13.03--
2:54 PM602119.96-4.34nnw12.17--
1:54 PM594235.94-5.21nw13.9--
12:54 PM575139.05-5.21nw14.77--
10:54 AM526339.8-5.21wnw13.03--
9:54 AM486938.32-4.34nw12.17--
8:54 AM467337.84-2.61nnw6.95--
7:54 AM408535.86-2.61n8.69--
6:54 AM408335.26-3.48nw10.43--
5:54 AM408535.86-3.48nw9.56--
4:54 AM408435.56-4.34nw10.43--
3:54 AM408335.26-3.48nw13.03--
2:54 AM417935-3.48nw9.56--
1:54 AM417834.68-5.21nw11.3--
12:54 AM407934.02-4.34nw10.43--
High: 53ºf @2:54 PM    Low: 32ºf @12:54 AM     Approx. Precipitation / Rain Total: in.
Time (PST)Temp. (ºf)Humidity (%)Dew Point (ºf)Barometer (inHG)Wind Speed (mph)Wind DirectionWind Gust (mph)1hr. Precip / Rain Total (in.)Snow Depth
11:54 PM417734.35-4.34nw13.9--
10:54 PM407432.39-5.21nw10.43--
9:54 PM427032.94-4.34wnw13.03--
8:54 PM417132.33-4.34nw13.03--
6:54 PM436732.8-3.48wnw10.43--
5:54 PM446432.62-3.48wnw10.43--
4:54 PM485532.61-4.34nw14.77--
3:54 PM524933.44-5.21nw14.77--
2:54 PM534733.32-5.21nw19.12--
1:54 PM524732.4-4.34wnw13.9--
12:54 PM475029.34-3.48wnw14.77--
11:54 AM445428.44-2.61wnw11.3--
10:54 AM444926.08-0.87n9.56--
9:54 AM394820.99-3.48wnw11.3--
8:54 AM374819.16-4.34wnw13.03--
7:54 AM356022.54-1.74nnw6.95--
6:54 AM335619.04-0.87wsw7.82--
5:54 AM335719.45-1.74se8.69--
4:54 AM335217.32-3.48sse6.95--
3:54 AM335016.41-2.61w8.69--
2:54 AM334915.95-0.87wsw7.82--
1:54 AM335116.87-2.61sse8.69--
12:54 AM325015.49-2.61sse6.08--
High: 37ºf @12:54 PM    Low: 22ºf @7:54 AM     Approx. Precipitation / Rain Total: in.
Time (PST)Temp. (ºf)Humidity (%)Dew Point (ºf)Barometer (inHG)Wind Speed (mph)Wind DirectionWind Gust (mph)1hr. Precip / Rain Total (in.)Snow Depth
11:54 PM314914.11-1.74s8.69--
10:54 PM314813.64-2.61sse10.43--
9:54 PM324814.56-1.74ese6.95--
8:54 PM314914.11-0.87s5.21--
7:54 PM305214.53-0.87sw9.56--
6:54 PM305114.09-0.87wsw5.21--
5:54 PM315215.46-0.87nnw8.69--
4:54 PM344916.87-2.61n13.03--
3:54 PM354415.32-4.34n13.03--
2:54 PM354113.71-5.21n12.17--
1:54 PM363913.47-4.34n13.9--
12:54 PM374014.95-5.21n14.77--
10:54 AM315315.9-5.21n14.77--
9:54 AM305515.82-4.34n11.3--
8:54 AM276316.11-5.21n13.9--
7:54 AM227615.61-2.61n9.56--
6:54 AM237716.88-3.48nnw9.56--
4:54 AM238017.77-2.61nne7.82--
3:54 AM238017.77-4.34nne8.69--
2:54 AM247918.45-3.48nne8.69--
1:54 AM247717.86-3.48n8.69--
12:54 AM257417.9-4.34nne8.69--
High: 36ºf @1:54 PM    Low: 25ºf @6:54 AM     Approx. Precipitation / Rain Total: in.
Time (PST)Temp. (ºf)Humidity (%)Dew Point (ºf)Barometer (inHG)Wind Speed (mph)Wind DirectionWind Gust (mph)1hr. Precip / Rain Total (in.)Snow Depth
11:54 PM267418.87-3.48nne8.69--
10:54 PM277419.84-3.48nne8.69--
9:54 PM287320.48-2.61nne6.95--
8:54 PM287119.83-2.61ne12.17--
7:54 PM296819.78-2.61nnw16.51--
6:54 PM306218.58-5.21nnw12.17--
5:54 PM315416.33-4.34nnw15.64--
4:54 PM325015.49-4.34nnw16.51--
3:54 PM364215.16-4.34nw13.03--
2:54 PM354917.79-4.34nnw15.64--
1:54 PM365119.65-6.08nw14.77--
12:54 PM355118.72-5.21nnw15.64--
11:54 AM355420.06-3.48nw14.77--
10:54 AM306218.58-6.08nw19.12--
9:54 AM306620.04-6.08nw14.77--
8:54 AM306017.82-5.21nw13.03--
7:54 AM267218.23-3.48nw12.17--
6:54 AM257417.9-3.48nw12.17--
5:54 AM267519.18-2.61nw9.56--
4:54 AM276817.87-2.61nw11.3--
3:54 AM286919.17-3.48nnw13.9--
2:54 AM277520.15-2.61nnw13.9--
1:54 AM287119.83-4.34nw13.03--
12:54 AM277219.2-2.61nw9.56--
High: 42ºf @1:54 AM    Low: 29ºf @9:54 AM     Approx. Precipitation / Rain Total: in.
Time (PST)Temp. (ºf)Humidity (%)Dew Point (ºf)Barometer (inHG)Wind Speed (mph)Wind DirectionWind Gust (mph)1hr. Precip / Rain Total (in.)Snow Depth
11:54 PM296819.78-2.61nw13.03--
10:54 PM296518.73-4.34nw13.03--
9:54 PM306318.95-3.48nw13.03--
8:54 PM296217.63-3.48nnw13.9--
7:54 PM306017.82-3.48nw13.03--
6:54 PM305616.23-2.61nw9.56--
5:54 PM315416.33-2.61nw9.56--
4:54 PM345117.8-2.61nnw11.3--
3:54 PM364818.24-4.34n11.3--
2:54 PM384820.07-4.34nne12.17--
1:54 PM384920.56-4.34n15.64--
12:54 PM395222.88-5.21nnw13.9--
11:54 AM375924.02-6.08nnw17.38--
10:54 AM347526.92-6.08nnw18.25--
9:54 AM299226.97-5.21nnw17.38--
8:54 AM299126.71-6.95nnw19.12--
7:54 AM337224.98-3.48nw16.51--
6:54 AM347426.6-4.34nw12.17--
5:54 AM367528.86-4.34nw11.3--
4:54 AM368632.23-3.48nw12.17--
3:54 AM397832.73-2.61nw12.17--
2:54 AM417935-2.61nw9.56--
1:54 AM428537.82-1.74nw8.69--
12:54 AM419339.13-0.87nw5.21--
High: 59ºf @12:54 PM    Low: 32ºf @7:54 AM     Approx. Precipitation / Rain Total: in.
Time (PST)Temp. (ºf)Humidity (%)Dew Point (ºf)Barometer (inHG)Wind Speed (mph)Wind DirectionWind Gust (mph)1hr. Precip / Rain Total (in.)Snow Depth
11:54 PM428537.82-2.61nw6.95--
10:54 PM409839.48---2.61--
9:54 PM399637.96---3.48--
8:54 PM399437.42-0.87nw2.61--
7:54 PM438739.4-0.87wnw8.69--
6:54 PM477840.5-3.48se11.3--
3:54 PM555740.05-3.48se13.03--
2:54 PM584838.42-6.08se14.77--
1:54 PM584235.04-6.08se14.77--
12:54 PM593934.08-7.82se16.51--
11:54 AM584637.34-4.34sse13.03--
10:54 AM506538.7---2.61--
9:54 AM487038.69---1.74--
8:54 AM437736.29-0.87n4.34--
7:54 AM329630.99-1.74ne4.34--
6:54 AM339531.73-1.74ne4.34--
5:54 AM329430.47-1.74ne3.48--
4:54 AM339531.73---3.48--
3:54 AM339431.47-0.87ne2.61--
2:54 AM339431.47-1.74nne4.34--
1:54 AM329430.47-0.87nne3.48--
12:54 AM329330.21-0.87ne4.34--
High: 65ºf @1:54 PM    Low: 31ºf @6:54 AM     Approx. Precipitation / Rain Total: in.
Time (PST)Temp. (ºf)Humidity (%)Dew Point (ºf)Barometer (inHG)Wind Speed (mph)Wind DirectionWind Gust (mph)1hr. Precip / Rain Total (in.)Snow Depth
11:54 PM339331.2-1.74nne4.34--
10:54 PM339130.67-0.87n3.48--
9:54 PM359333.18-1.74ne4.34--
8:54 PM368933.08-1.74ne4.34--
7:54 PM399236.88-1.74ne2.61--
6:54 PM429239.85-0.87nne2.61--
5:54 PM468541.75---4.34--
4:54 PM526741.39-2.61nw6.95--
2:54 PM644341.05-1.74s6.95--
1:54 PM654140.72-1.74sse6.95--
12:54 PM605443.3-1.74wnw5.21--
11:54 AM585441.45-0.87se4.34--
10:54 AM536641.95-1.74nnw6.08--
9:54 AM478342.11-1.74n5.21--
8:54 AM349833.5-0.87ne4.34--
7:54 AM319830.5-0.87ne3.48--
6:54 AM319830.5-2.61ne4.34--
5:54 AM349933.75-1.74ne7.82--
4:54 AM329831.5-2.61ne4.34--
3:54 AM329831.5-2.61ne4.34--
2:54 AM329831.5-2.61ne5.21--
1:54 AM339832.5-2.61ne3.48--
12:54 AM339732.24-2.61ne5.21--
High: 53ºf @2:54 PM    Low: 33ºf @6:54 AM     Approx. Precipitation / Rain Total: in.
Time (PST)Temp. (ºf)Humidity (%)Dew Point (ºf)Barometer (inHG)Wind Speed (mph)Wind DirectionWind Gust (mph)1hr. Precip / Rain Total (in.)Snow Depth
11:54 PM339631.99-1.74ne4.34--
9:54 PM399838.48-1.74nnw5.21--
8:54 PM359232.92-1.74nne4.34--
7:54 PM389035.33-2.61ne5.21--
6:54 PM429039.28---7.82--
5:54 PM448539.79-1.74n6.95--
4:54 PM478141.48-1.74nw9.56--
3:54 PM516941.19-3.48nw11.3--
2:54 PM536139.91-1.74w7.82--
1:54 PM536240.33-2.61n9.56--
12:54 PM507140.97-3.48nw10.43--
11:54 AM507241.33-3.48nw10.43--
10:54 AM516941.19-2.61wnw8.69--
9:54 AM467839.53-1.74ne2.61--
8:54 AM389235.89-1.74ene6.08--
7:54 AM379736.23-1.74nw5.21--
6:54 AM339631.99-0.87ne4.34--
5:54 AM369634.97-0.87n3.48--
4:54 AM369634.97-1.74nne4.34--
3:54 AM389536.7---3.48--
2:54 AM389536.7---2.61--
1:54 AM399236.88-2.61nw7.82--
12:54 AM408636.16-1.74nnw6.95--
High: 48ºf @1:54 PM    Low: 29ºf @1:54 AM     Approx. Precipitation / Rain Total: in.
Time (PST)Temp. (ºf)Humidity (%)Dew Point (ºf)Barometer (inHG)Wind Speed (mph)Wind DirectionWind Gust (mph)1hr. Precip / Rain Total (in.)Snow Depth
11:54 PM408435.56-3.48nnw9.56--
10:54 PM409137.59---3.48--
9:54 PM399136.6---2.61--
8:54 PM399337.15---3.48--
7:54 PM419038.3---2.61--
6:54 PM428738.42---3.48--
4:54 PM448038.23-0.87w4.34--
3:54 PM457537.56-1.74wnw6.08--
1:54 PM486637.19-1.74nw5.21--
12:54 PM485833.94---3.48--
11:54 AM466334.12---1.74--
10:54 AM437635.96---2.61--
9:54 AM389235.89---0.87--
8:54 AM359734.24---4.34--
7:54 AM329931.75---3.48--
6:54 AM329931.75-0.87e3.48--
3:54 AM309829.5-0.87nnw2.61--
2:54 AM309829.5---1.74--
1:54 AM299828.51---3.48--
12:54 AM299828.51-0.87e3.48--
High: 43ºf @9:54 AM    Low: 31ºf @11:54 PM     Approx. Precipitation / Rain Total: in.
Time (PST)Temp. (ºf)Humidity (%)Dew Point (ºf)Barometer (inHG)Wind Speed (mph)Wind DirectionWind Gust (mph)1hr. Precip / Rain Total (in.)Snow Depth
11:54 PM319830.5-0.87ne4.34--
10:54 PM319730.25-0.87ne2.61--
9:54 PM339732.24-0.87ne4.34--
8:54 PM369334.18-0.87ne2.61--
7:54 PM389035.33-0.87ne2.61--
6:54 PM409638.95---6.08--
5:54 PM399637.96-0.87se9.56--
4:54 PM419238.86-4.34ese10.43--
3:54 PM428939-4.34ese13.03--
2:54 PM429039.28-5.21se11.3--
1:54 PM438839.69-4.34ese12.17--
12:54 PM438338.2-4.34se11.3--
11:54 AM428236.91-6.08se14.77--
10:54 AM418235.93-6.08ese18.25--
9:54 AM438438.5-6.08ese12.17--
8:54 AM409538.69-4.34se14.77--
7:54 AM399537.69-5.21ese12.17--
6:54 AM399337.15-5.21se11.3--
5:54 AM409538.69-4.34se11.3--
4:54 AM409438.41-4.34se10.43--
3:54 AM419539.68-4.34se13.03--
2:54 AM419539.68-4.34se13.03--
1:54 AM429440.4-7.82se17.38--
12:54 AM429340.12-9.56se17.38--
High: 43ºf @12:54 PM    Low: 34ºf @3:54 AM     Approx. Precipitation / Rain Total: in.
Time (PST)Temp. (ºf)Humidity (%)Dew Point (ºf)Barometer (inHG)Wind Speed (mph)Wind DirectionWind Gust (mph)1hr. Precip / Rain Total (in.)Snow Depth
11:54 PM429139.57-7.82ese15.64--
10:54 PM429039.28-6.08ese12.17--
9:54 PM429239.85-6.95ese14.77--
8:54 PM429340.12-6.08se12.17--
7:54 PM429239.85-6.08se11.3--
6:54 PM429039.28-6.08ese12.17--
5:54 PM429139.57-6.08se12.17--
4:54 PM419238.86-3.48se12.17--
3:54 PM428738.42-5.21sse13.9--
2:54 PM428838.71-5.21ese14.77--
1:54 PM428939-4.34ese12.17--
12:54 PM438939.98-6.08ese13.9--
11:54 AM419339.13-6.08se13.03--
10:54 AM429139.57-3.48se8.69--
9:54 AM399938.74---2.61--
8:54 AM369935.75---2.61--
7:54 AM359834.49---2.61--
6:54 AM359834.49---1.74--
5:54 AM359834.49---1.74--
4:54 AM359734.24---2.61--
3:54 AM349733.24---1.74--
2:54 AM359433.45---1.74--
1:54 AM369233.91---2.61--
12:54 AM369033.36---3.48--
High: 45ºf @5:54 PM    Low: 37ºf @11:54 PM     Approx. Precipitation / Rain Total: in.
Time (PST)Temp. (ºf)Humidity (%)Dew Point (ºf)Barometer (inHG)Wind Speed (mph)Wind DirectionWind Gust (mph)1hr. Precip / Rain Total (in.)Snow Depth
11:54 PM378934.06-0.87wsw3.48--
10:54 PM388533.9-0.87e3.48--
9:54 PM379134.62---1.74--
8:54 PM408034.34---6.08--
7:54 PM417734.35-1.74ene5.21--
5:54 PM456835.08-2.61se6.95--
Past Weather Disclaimer Note regarding "Approx. Precipitation / Rain Total"

Currently

Fair 30°F
30.12in
Barometer
58%
Humidity
East 3.5mph
Wind
Fair

Past Weather Nearby

More Local Information

Bookmark and Share

Go Ad Free - Become a Member